Tracking 20721 objects as of 2-Jun-2020
HD Live streaming from Space Station
objects crossing your sky now

COSMOS 1867 COOLANT

Track COSMOS 1867 COOLANT now!
10-day predictions


NORAD ID: 39675
Int'l Code: 1987-060AN
Perigee: 782.9 km
Apogee: 803.0 km
Inclination: 65.0 °
Period: 100.6 minutes
Semi major axis: 7163 km
RCS: Unknown
Launch date: July 10, 1987
Source: Commonwealth of Independent States (former USSR) (CIS)
Launch site: TYURATAM MISSILE AND SPACE COMPLEX (TTMTR)

Note: This is SATELLITE DEBRIS
aabbcc
Your satellite tracking list
Your tracking list is empty




NASA's NSSDC Master Catalog

Two Line Element Set (TLE):
1 39675U 87060AN  20151.20997609 -.00000019 +00000-0 +30279-4 0  9998
2 39675 065.0088 086.6521 0014019 269.4664 090.4814 14.31783404320241
Source of the keplerian elements: AFSPC